Location: Cheching
(60.0667°N, 164.2167°W)
Time: 14:32:14
(UTC+00:00)

STRAND 1 - Pass Details

Date: 24 January 2021
Orbit: 768 x 780 km, 98.4° (Epoch: 04 March)

Event Time Altitude Azimuth Distance (km) Brightness Sun altitude
Rises 15:43:31 0° 128° (SE) 3,244 ? -27.0°
Reaches altitude 10° 15:45:58 10° 120° (ESE) 2,322 ? -26.7°
Maximum altitude 15:50:35 36° 56° (NE) 1,228 ? -26.2°
Drops below altitude 10° 15:55:14 10° 351° (N) 2,341 ? -25.6°
Enters shadow 15:57:03 - 345° (NNW) 3,019 ? -25.4°
